Presure
121 293 272 308 204 296 318 309 306 306 298 289 109 318 316 309 228 286 320 321 270 314 278 250 232 181 201 187 179 186 168 159 137 155 155 161 121 144 124 155 142 138 136 118 136
128 201 313 331 330 327 334 329 324 315 315 314 311 307 170 88 237 275 329 310 298 318 324 261 238 192 212 198 182 188 163 171 150 157 152 157 147 143 110 158 140 144 151 133 134
108 320 312 327 366 357 354 338 332 327 325 320 319 310 113 286 279 265 285 303 313 276 343 261 259 234 189 207 185 176 148 174 149 171 163 139 148 153 142 147 146 147 143 113 152
128 314 342 374 363 354 348 359 482 463 341 330 330 321 319 321 310 253 103 269 297 326 338 279 253 234 234 206 196 184 170 143 177 163 173 163 150 146 150 144 85 156 143 140 140
327 346 386 369 449 520 501 494 490 475 471 463 319 347 325 321 85 97 253 268 299 298 300 330 263 254 235 201 205 191 187 173 148 174 149 166 162 148 147 147 143 149 146 155 143
315 342 379 472 513 490 468 463 461 451 439 451 452 446 365 340 221 317 297 261 279 311 300 294 287 253 220 239 208 180 183 180 174 142 178 168 175 165 157 150 145 144 150 147 149
337 359 385 504 478 436 471 438 434 421 421 416 423 437 470 473 399 326 310 302 271 316 322 307 330 270 245 224 206 205 176 187 170 173 163 163 176 169 160 153 154 149 151 154 149
336 380 527 479 449 425 412 417 415 435 437 438 418 409 431 411 510 406 342 268 155 233 300 297 304 337 254 243 203 211 194 176 188 175 172 133 135 178 174 162 154 159 155 154 155
225 373 543 477 451 424 418 402 414 422 452 442 401 415 433 464 495 425 397 360 319 278 296 329 313 291 378 247 213 225 214 191 171 185 179 178 171 180 71 75 154 165 151 152 163
150 259 535 513 460 432 415 415 409 444 430 456 404 427 452 464 500 445 347 383 368 278 318 307 318 325 295 293 234 222 226 187 193 168 185 187 155 170 148 181 173 167 153 160 155
290 366 364 510 489 451 425 424 422 431 437 432 426 446 467 440 431 412 347 330 334 288 321 296 325 337 357 329 249 216 229 210 190 194 189 177 185 176 181 171 170 181 170 168 160
281 235 371 492 517 489 475 486 479 478 458 456 464 415 387 366 384 360 326 310 302 327 273 340 308 330 337 331 294 233 230 221 221 188 190 197 165 191 184 175 187 170 168 168 170
282 320 314 333 412 493 506 501 450 432 465 433 406 359 321 304 295 296 304 291 315 320 304 324 306 298 338 323 326 254 221 219 228 203 202 181 126 168 163 186 183 178 177 172 169
292 287 349 329 411 350 395 407 418 414 393 385 371 344 321 306 300 300 310 284 290 321 330 298 300 287 326 316 317 266 240 214 211 221 213 208 185 193 185 167 171 187 185 172 167
290 295 319 326 316 335 333 312 408 385 370 373 354 326 305 288 278 293 287 278 283 296 284 301 294 299 305 330 317 327 237 230 214 216 218 222 203 185 190 192 174 167 152 152 182
149 289 296 323 313 323 323 379 326 389 321 323 319 311 305 286 284 278 275 270 277 274 293 289 288 295 314 304 337 309 309 238 225 218 220 215 220 188 182 190 192 189 180 172 159
265 287 319 288 303 299 324 310 343 349 349 319 303 303 306 306 287 279 271 277 266 295 299 280 311 288 289 306 308 319 305 297 274 226 219 217 217 219 214 206 187 193 189 187 186
270 292 283 291 308 297 329 311 324 310 306 324 317 308 296 283 296 300 271 273 263 263 280 296 288 312 328 291 307 296 314 299 292 281 240 219 207 218 222 220 205 225 198 189 189
139 320 278 276 307 296 285 279 309 332 322 314 303 307 295 290 291 289 295 288 281 272 271 288 286 293 296 305 304 297 300 314 287 295 263 247 246 210 219 220 227 231 209 227 200
317 320 285 278 318 299 288 287 290 298 309 300 319 304 319 292 290 291 289 286 285 274 280 272 280 281 283 296 234 323 322 306 302 287 288 269 249 251 236 227 219 220 226 228 235
307 335 292 281 282 313 291 293 283 278 309 314 307 329 304 297 292 287 276 284 277 283 283 278 273 283 283 283 284 297 299 287 311 298 270 277 277 252 253 234 241 227 220 223 221
325 331 302 294 309 298 306 296 287 276 269 290 309 304 321 299 288 284 278 274 273 271 271 271 275 273 277 282 284 290 297 290 279 299 283 268 266 261 257 252 237 226 248 224 220
325 343 141 311 275 309 320 306 278 279 275 269 279 283 297 308 292 285 279 267 277 263 282 274 268 263 267 276 273 271 280 285 290 275 290 281 272 258 257 257 253 260 261 251 219
274 321 316 328 284 295 308 311 302 287 275 268 269 287 280 272 277 282 277 276 270 270 266 266 277 282 272 263 259 259 267 268 276 293 269 270 274 283 267 255 249 245 254 249 253
335 267 320 315 308 292 300 296 324 295 288 276 265 273 288 289 279 271 274 275 281 283 269 272 267 260 277 281 272 271 270 273 265 275 276 280 276 279 270 270 266 252 259 253 259
193 342 357 333 317 311 298 295 295 332 297 282 276 268 271 283 309 299 284 273 271 270 287 274 260 283 267 278 281 278 270 289 267 260 287 266 269 251 245 247 247 249 251 254 265
305 359 344 315 322 317 286 296 287 291 326 298 284 273 266 256 281 287 306 306 298 295 288 270 269 278 272 260 261 277 268 270 267 270 250 260 255 247 246 249 250 249 252 252 253
Wind_Speed
56 64 56 64 65 61 57 55 53 50 47 46 29 47 49 52 57 68 63 63 99 75 120 118 115 93 110 102 97 100 89 95 70 94 94 92 59 75 60 83 79 68 66 56 62
59 65 68 69 68 66 64 62 60 59 59 58 56 56 26 22 61 68 49 71 93 78 104 120 117 100 115 111 100 106 86 100 98 96 82 91 83 75 49 87 74 76 78 64 65
46 75 75 72 67 63 61 62 63 64 69 69 68 65 28 55 74 74 79 77 77 105 66 119 124 123 102 117 105 96 79 106 78 102 104 70 80 90 78 82 80 80 74 51 82
70 78 76 67 65 61 57 55 56 62 68 71 78 75 74 70 67 83 36 80 90 66 61 117 122 119 126 114 114 106 103 76 100 100 109 104 81 86 89 80 32 87 84 75 74
82 82 75 75 48 26 25 27 31 39 44 49 73 89 82 79 18 31 89 90 86 90 92 70 127 126 123 113 120 115 114 96 83 108 82 103 99 86 84 85 83 86 84 88 81
85 87 83 49 22 21 20 21 19 23 26 28 38 55 68 95 55 80 79 94 92 76 94 103 121 127 120 129 119 103 109 102 102 75 109 99 102 98 96 93 88 81 88 85 86
91 90 89 29 20 28 10 10 10 19 26 28 31 27 33 46 86 87 82 79 98 71 64 92 72 131 125 122 117 123 97 110 100 100 93 88 102 97 96 95 95 91 92 94 88
92 90 33 30 28 29 25 17 15 18 19 19 18 29 23 32 45 79 89 66 46 83 80 99 98 76 127 127 115 124 115 95 115 102 99 70 66 100 100 98 96 98 97 94 92
82 89 30 30 25 29 27 20 16 23 12 15 19 19 19 21 31 66 71 77 77 99 86 65 87 113 65 127 118 126 121 114 99 113 104 107 96 102 17 15 90 99 88 90 97
74 63 38 26 21 22 25 22 18 21 7 8 12 9 13 19 39 62 72 57 62 89 70 81 75 74 103 109 122 117 128 110 117 94 107 112 87 93 73 102 100 98 90 97 91
97 85 84 31 19 18 21 18 18 7 1 7 13 17 30 35 43 53 64 62 56 84 58 81 62 60 59 82 129 119 128 119 113 118 113 99 108 96 104 88 90 103 101 101 98
96 87 80 46 23 20 17 13 7 5 10 18 31 64 64 55 42 57 62 63 64 53 87 50 64 52 69 82 111 121 124 123 127 112 112 120 85 111 111 97 109 92 96 100 103
97 93 79 81 56 41 37 34 34 34 30 52 70 80 62 64 53 48 51 53 31 40 56 44 58 69 64 78 83 124 119 121 126 120 121 105 65 93 86 112 105 96 98 99 100
99 95 78 78 52 65 40 42 42 53 60 61 67 74 64 65 55 44 34 46 36 32 44 54 54 72 49 75 80 117 124 114 117 123 123 124 110 116 108 92 93 109 106 94 93
94 95 84 77 76 67 65 64 47 50 56 60 67 66 57 48 47 46 41 43 30 23 46 46 53 55 56 55 76 74 118 120 117 121 119 124 122 108 114 115 100 89 75 75 104
61 92 87 71 71 66 60 43 47 54 31 57 60 59 56 48 47 43 47 48 40 43 33 44 51 52 49 60 51 73 79 121 120 118 122 118 118 99 101 113 113 111 104 93 82
93 87 70 81 66 64 52 54 33 23 52 39 35 43 50 48 46 43 41 42 44 30 29 44 29 54 57 54 57 66 76 84 104 119 116 118 115 111 114 110 103 112 110 107 106
91 82 80 74 57 57 43 45 30 31 27 29 32 29 30 24 36 36 40 41 40 40 33 33 34 23 34 53 56 63 62 79 82 94 122 118 107 112 115 113 110 118 111 105 107
34 68 76 72 52 51 49 47 32 27 25 22 19 20 24 24 27 29 40 36 39 37 38 35 35 33 38 41 57 58 63 69 82 77 100 114 118 106 118 113 114 114 104 118 114
76 65 69 67 42 45 43 37 33 28 21 16 12 16 32 28 28 30 33 36 41 39 40 38 38 40 39 35 27 38 51 61 70 79 82 97 104 108 115 117 114 111 113 111 113
67 52 65 62 57 32 37 32 32 30 19 11 10 15 21 29 28 26 23 30 29 39 37 36 33 35 35 36 33 31 41 50 46 71 80 77 85 99 102 108 109 118 111 112 107
75 47 59 57 43 39 25 26 24 24 22 18 8 6 19 26 24 24 22 22 25 27 27 29 34 34 36 33 32 31 35 49 51 53 78 82 80 87 91 95 102 105 105 112 104
79 50 56 44 54 35 19 18 28 20 18 15 13 8 4 19 26 27 25 19 26 21 26 27 29 30 31 31 30 31 29 34 48 53 60 73 78 81 82 86 89 85 84 95 96
81 56 53 33 49 43 29 19 15 16 17 14 11 5 2 3 8 17 22 24 26 28 26 25 27 32 38 36 34 33 33 33 35 43 58 60 63 69 80 83 81 81 79 85 87
71 74 51 41 34 36 30 28 8 13 11 12 13 8 4 8 11 12 16 21 28 36 30 32 30 28 32 35 39 39 37 40 38 34 44 46 50 49 56 59 63 73 71 79 81
65 56 31 33 32 26 27 27 23 6 10 12 10 9 5 3 10 16 20 22 22 23 31 32 27 38 30 27 29 32 37 36 36 36 32 44 48 56 58 62 65 67 69 69 65
108 44 44 43 31 26 32 25 26 19 7 13 12 12 11 10 6 6 10 15 23 26 29 29 30 29 33 29 28 34 36 35 36 38 40 42 46 54 55 57 58 59 58 56 53
Wind_Direction
350 336 327 325 328 318 311 304 295 285 273 262 273 245 235 219 228 219 209 207 212 214 211 212 211 218 213 215 218 216 217 215 230 223 224 220 229 231 231 221 234 236 231 241 242
340 342 333 330 322 314 303 295 286 280 273 266 257 248 235 273 223 220 211 211 212 211 210 211 212 216 214 213 217 218 217 213 221 224 230 223 227 231 231 222 236 238 232 242 246
345 340 335 328 311 304 296 288 280 271 265 260 255 249 272 236 215 220 215 211 212 212 214 212 212 211 217 214 215 218 219 215 225 218 223 228 228 224 233 229 233 233 236 230 236
333 341 333 323 318 307 298 285 266 258 255 250 247 245 243 238 221 221 240 215 213 212 215 212 212 213 211 213 215 216 218 227 216 221 221 223 226 228 228 234 220 227 235 240 243
347 341 335 331 320 299 286 282 265 257 255 249 242 235 237 236 248 264 220 216 213 210 211 215 212 212 211 215 214 216 214 219 224 219 230 224 223 228 232 231 235 234 237 231 241
348 345 341 335 314 305 291 291 275 260 253 252 245 238 234 228 228 224 212 218 212 207 210 211 211 212 212 212 214 218 218 216 220 230 222 226 223 221 225 229 234 238 235 238 238
352 348 346 341 346 340 307 307 319 266 245 247 244 246 245 233 223 221 219 211 213 215 215 211 215 211 210 213 213 216 218 217 222 224 223 227 225 222 224 227 230 235 236 235 239
355 352 339 335 335 338 351 332 308 326 251 244 219 229 230 224 208 213 219 213 216 212 211 212 212 212 211 211 214 215 216 219 218 225 225 227 226 225 222 225 228 230 233 236 238
350 356 351 342 329 336 343 342 338 337 268 221 218 232 234 214 200 200 201 213 213 208 210 212 211 211 210 211 214 214 216 219 223 221 225 226 229 227 228 223 228 229 237 238 237
346 353 3 354 329 331 341 340 343 333 307 222 208 206 195 185 175 184 186 190 195 214 208 211 209 208 211 211 213 213 216 220 221 225 226 224 229 230 231 228 227 231 235 236 241
359 2 3 10 2 335 351 351 343 330 227 166 150 137 127 120 149 169 177 182 178 192 204 210 204 208 205 210 212 214 214 218 221 223 225 228 228 231 232 234 231 230 233 235 239
360 359 5 13 9 4 358 7 19 57 108 124 129 115 108 110 126 155 166 182 194 190 212 192 203 208 207 208 212 213 215 218 218 224 226 227 229 228 232 236 233 233 234 236 237
359 2 4 8 30 54 63 73 84 93 97 119 123 129 145 144 149 166 175 180 172 187 196 182 201 209 214 211 212 213 216 218 220 222 225 228 230 231 233 234 237 237 236 238 241
358 1 7 9 29 27 54 75 91 103 106 113 127 135 139 138 144 141 140 182 189 183 179 195 200 209 215 212 213 213 215 219 223 223 224 226 230 232 234 237 239 239 238 240 242
358 0 4 9 13 20 30 36 101 107 111 118 133 139 143 151 160 146 157 175 177 184 198 195 205 208 214 216 213 212 216 218 222 225 225 226 228 232 234 236 238 240 237 237 243
355 360 1 9 12 16 25 65 48 107 84 117 123 133 145 154 165 171 169 179 183 190 192 202 207 213 215 218 215 213 214 218 222 225 227 229 229 231 234 236 238 240 242 243 243
356 358 4 2 11 14 26 33 55 72 121 124 132 146 133 143 168 174 184 182 195 162 183 203 201 215 220 218 218 215 213 216 220 225 227 230 234 232 233 235 239 240 241 244 246
354 357 359 1 10 12 29 38 35 51 64 118 136 144 153 164 152 160 182 188 197 202 193 183 204 190 212 221 221 220 218 217 221 221 226 230 234 237 239 238 237 239 243 246 247
346 357 357 358 6 9 10 18 31 58 72 85 105 139 155 169 172 174 168 178 182 198 207 183 196 193 199 216 224 218 221 215 221 221 224 228 231 235 238 242 244 244 243 243 246
353 354 355 356 5 7 4 15 26 33 51 63 113 130 160 174 179 182 179 186 187 202 202 210 207 215 217 218 217 223 225 226 220 223 224 227 231 233 235 238 243 246 248 248 251
352 352 351 354 357 6 1 10 16 25 37 70 92 145 163 176 186 191 201 200 203 201 202 208 219 218 220 220 221 217 218 225 222 220 225 225 227 232 235 237 239 243 247 249 251
348 351 349 351 354 356 359 2 8 11 18 27 81 114 166 183 197 202 213 221 216 222 222 221 222 229 233 237 235 225 225 222 224 222 222 227 227 231 234 237 240 241 241 249 251
347 347 353 346 347 350 352 352 354 355 8 16 29 29 146 185 197 205 217 235 229 231 227 224 221 227 231 233 236 234 233 227 225 226 224 226 226 231 234 237 239 241 244 246 248
341 340 343 337 343 342 344 343 337 343 346 350 5 17 346 287 224 216 226 233 238 236 237 233 230 221 222 233 234 235 232 225 225 219 226 228 229 232 234 239 241 243 245 248 250
341 336 338 338 334 335 331 336 319 322 326 332 330 359 332 257 254 250 231 227 230 233 237 234 232 229 239 233 228 230 231 228 225 226 222 223 225 224 229 233 236 238 240 244 249
335 334 321 323 325 319 323 320 324 281 281 304 296 300 330 310 248 243 241 246 241 233 230 232 236 232 229 222 224 224 222 223 215 218 219 216 217 224 228 230 235 238 241 246 249
342 330 328 327 312 308 324 313 312 311 272 257 270 288 285 281 308 286 247 237 235 232 232 232 228 226 222 219 217 220 212 211 214 215 214 208 215 221 226 230 233 237 241 244 247